カタログに戻る

CZ-4 DEB

運用中SSO
NORAD 20915·DEBRIS·🇨🇳 China

打ち上げ Sep 3, 1990 から Taiyuan Satellite Launch Center

Loading…

次のパス (今後24時間)

TLE

最新Source: Space-Track

元期: Sep 13, 2026, 21:57 UTC

1 20915U 90081BY  26256.91479243  .00000422  00000-0  18715-3 0  9998
2 20915  98.5615 248.6767 0036749 118.3455 308.2018 14.27675833861473

AllMySatでCZ-4 DEBをリアルタイム追跡

Download on the App Store